Weather History for KUIN - December, 2012

Change the Weather History Date:

Wednesday, December 12, 2012

  Actual Average Record
Temperature  
Mean Temperature 37 °F 30 °F  
Max Temperature 49 °F 38 °F 67 °F (1991)
Min Temperature 25 °F 23 °F -10 °F (1962)
Degree Days  
Heating Degree Days 28 35  
Month to date heating degree days 266 391  
Since 1 July heating degree days 1411 1491  
Cooling Degree Days 0 0  
Month to date cooling degree days 0 0  
Year to date cooling degree days 1575 1094  
Moisture  
Dew Point 20 °F    
Average Humidity 53    
Maximum Humidity 75    
Minimum Humidity 31    
Precipitation  
Precipitation 0.00 in 0.08 in 1.50 in (1946)
Month to date precipitation 0.19 1.01  
Year to date precipitation 24.45 36.09  
Sea Level Pressure  
Sea Level Pressure 30.24 in    
Wind  
Wind Speed 9 mph (South)    
Max Wind Speed 20 mph    
Max Gust Speed 23 mph    
Visibility 10 miles    
Events      
T = Trace of Precipitation, MM = Missing Value Source: NWS Daily Summary

Daily Weather History Graph

Daily Weather History Graph

Search for Another Location

Airport or City:

Trip Planner

Search our weather history database for the weather conditions in past years. The results will help you decide how hot, cold, wet, or windy it might be!

Date:

Astronomy

Dec. 12, 2012 Rise Set
Actual Time 7:17 AM CST 4:40 PM CST
Civil Twilight 6:47 AM CST 5:10 PM CST
Nautical Twilight 6:13 AM CST 5:44 PM CST
Astronomical Twilight 5:40 AM CST 6:17 PM CST
Moon 6:22 AM CST (12/12) 4:17 PM CST (12/12)
Length of Visible Light 10h 23m
Length of Day
9h 22m
Waning Crescent, 1% of the Moon is Illuminated
Dec 12
Waning Crescent
Dec 13
New
Dec 19
First Quarter
Dec 28
Full
Jan 4
Last Quarter

Hourly Weather History & Observations

Time (CST) Temp. Windchill Dew Point Humidity Pressure Visibility Wind Dir Wind Speed Gust Speed Precip Events Conditions
12:54 AM 27.0 °F 20.5 °F 19.0 °F 72% 30.20 in 10.0 mi South 5.8 mph - N/A   Clear
1:54 AM 27.0 °F 20.5 °F 19.0 °F 72% 30.20 in 10.0 mi South 5.8 mph - N/A   Clear
2:54 AM 27.0 °F 19.5 °F 19.0 °F 72% 30.21 in 10.0 mi South 6.9 mph - N/A   Clear
3:54 AM 27.0 °F 19.5 °F 19.0 °F 72% 30.21 in 10.0 mi South 6.9 mph - N/A   Clear
4:54 AM 28.0 °F 21.7 °F 19.0 °F 69% 30.22 in 10.0 mi South 5.8 mph - N/A   Clear
5:54 AM 27.0 °F 19.5 °F 19.0 °F 72% 30.24 in 10.0 mi South 6.9 mph - N/A   Clear
6:54 AM 27.0 °F 19.5 °F 19.0 °F 72% 30.25 in 10.0 mi South 6.9 mph - N/A   Clear
7:54 AM 28.9 °F 21.9 °F 19.0 °F 67% 30.27 in 10.0 mi South 6.9 mph - N/A   Clear
8:54 AM 33.1 °F 26.1 °F 21.0 °F 61% 30.28 in 10.0 mi South 8.1 mph - N/A   Clear
9:54 AM 37.0 °F 28.9 °F 23.0 °F 57% 30.29 in 10.0 mi SSW 12.7 mph - N/A   Clear
10:54 AM 41.0 °F 34.7 °F 21.2 °F 45% 30.27 in 10.0 mi South 10.4 mph - N/A   Clear
11:54 AM 43.0 °F 36.4 °F 24.1 °F 47% 30.27 in 10.0 mi South 12.7 mph - N/A   Clear
12:54 PM 46.0 °F 41.0 °F 21.9 °F 39% 30.25 in 10.0 mi South 10.4 mph - N/A   Clear
1:54 PM 48.0 °F - 21.9 °F 36% 30.22 in 10.0 mi South 12.7 mph - N/A   Clear
2:54 PM 48.9 °F - 19.9 °F 32% 30.22 in 10.0 mi SSW 18.4 mph 21.9 mph N/A   Clear
3:54 PM 46.9 °F - 19.9 °F 34% 30.22 in 10.0 mi South 9.2 mph - N/A   Clear
4:54 PM 44.1 °F 39.0 °F 19.0 °F 37% 30.22 in 10.0 mi South 9.2 mph - N/A   Clear
5:54 PM 42.1 °F 37.1 °F 18.0 °F 38% 30.23 in 10.0 mi South 8.1 mph - N/A   Clear
6:54 PM 34.0 °F 28.0 °F 19.9 °F 56% 30.23 in 10.0 mi SSE 6.9 mph - N/A   Clear
7:54 PM 35.1 °F 28.6 °F 21.0 °F 57% 30.22 in 10.0 mi SSE 8.1 mph - N/A   Clear
8:54 PM 37.0 °F 30.4 °F 21.0 °F 52% 30.23 in 10.0 mi SSE 9.2 mph - N/A   Clear
9:54 PM 35.1 °F 29.3 °F 21.0 °F 57% 30.24 in 10.0 mi SSE 6.9 mph - N/A   Clear
10:54 PM 35.1 °F 30.1 °F 19.9 °F 54% 30.26 in 10.0 mi South 5.8 mph - N/A   Clear
11:54 PM 37.0 °F 31.0 °F 19.0 °F 48% 30.25 in 10.0 mi South 8.1 mph - N/A   Clear